DMSP 5D-2 F13 DEB, 40414

Orbit data source: Space-Track

DMSP 5D-2 F13 DEB, 40414 is space debris in SSO originally from a launch on Fri, 24 Mar 1995 UTC launched from the Air Force Western Test Range (AFWTR). Debris objects in space refer to the collection of defunct objects orbiting the Earth. Examples of debris include non-operational satellites, rocket bodies, and fragments generated from explosions, collisions, or faulty payload assembly.

Loading next visibility...
Identifier
40414, 1995-015AB
Orbit
SSO
Country
Flag of USUS
Related business
Manufacturer
Unknown
Mission
Spacecraft
Bus & Motor
Unknown
Mass
Unknown
Launch date (UTC)
1995-03-24 (30 years ago)
Launch vehicle
Unknown
Launch site
Air Force Western Test Range (AFWTR)
Object type
Payload
Rocket body
Debris
Shape & HBR
Unknown
Radar Cross Section
Small (<0.1 m²)

Expand to show TLE details & history
Last TLE update: 1 day ago

TLE from 1 day ago
0 DMSP 5D-2 F13 DEB
1 40414U 95015AB  25245.02078585  .00004705  00000-0  18059-2 0  9997
2 40414  98.6552 269.5245 0012446  57.5870 302.6515 14.30913514546044
Epoch: 2025-09-02T00:29Z
TLE epoch observation values (Epoch: 2025-09-02T00:29:55.897Z)
Latitude
-0.00002°
Longitude
-79.37642°
Altitude
786.805 km
Speed
7.463 km/s
True Right ascension
17h 58m 05s
True Declination
0° 00' 00"
Sunlit
Object was in daylight at epoch
Visualization orbit readout
Latitude
Unknown
Longitude
Unknown
Altitude
Unknown
Speed
Unknown
Apparent Right ascension
Unknown
Apparent Declination
Unknown
Sunlit
N/A
Visualization observer readout
Local Sidereal Time
19:26:17
Azimuth
Unknown
Elevation
Unknown
Doppler factor
Unknown
Orbital elements
Apogee altitude
794.737 km
Perigee altitude
776.904 km
Semi-major axis
7,163.957 km
Eccentricity
0.00124
Inclination
98.6552°
RAAN
269.5245°
Arg. of periapsis
57.587°
True anomaly
302.53132°
Mean anomaly
302.6515°
Eccentric anomaly
302.59142°
Mean motion
3.57943 °/min
Orbital period
100.57 mins
BSTAR
0.0018059
Loading maneuver chart data...
Computing Atmospheric mass density...

Documentation

Showing up to 5 results
|